Location: ??
(35.5052°N, 139.7262°E)
Time: 16:18:03
(UTC+00:00)

USA 281 - Pass Details

Date: 20 June 2021
Orbit: 1078 x 1081 km, 106.0° (Epoch: 18 July)

Event Time Altitude Azimuth Distance (km) Brightness Sun altitude
Rises 18:06:14 0° 165° (SSE) 3,862 5.9 -13.9°
Reaches altitude 10° 18:08:46 10° 168° (SSE) 2,910 5.2 -13.5°
Maximum altitude 18:15:15 66° 250° (WSW) 1,172 3.2 -12.6°
Drops below altitude 10° 18:21:47 10° 332° (NNW) 2,926 5.7 -11.5°
Sets 18:24:20 0° 335° (NNW) 3,886 6.3 -11.1°
